Location: Bieg
(49.3499°N, 10.3835°E)
Time: 00:21:01
(UTC+00:00)

Cosmos 1300 - Pass Details

Date: 23 May 2024
Orbit: 465 x 468 km, 82.5° (Epoch: 12 June)

Event Time Altitude Azimuth Distance (km) Brightness Sun altitude
Rises 00:53:50 0° 335° (NNW) 2,515 6.8 -16.7°
Reaches altitude 10° 00:56:27 10° 314° (NW) 1,632 5.5 -16.5°
Maximum altitude 00:58:47 17° 273° (W) 1,264 4.4 -16.3°
Enters shadow 00:59:06 17° 266° (W) 1,270 4.4 -16.3°
